Change the Weather History Date:

Friday, January 20, 2012

  Actual Average Record
Temperature  
Mean Temperature 42 °F -  
Max Temperature 55 °F 44 °F 66 °F (2006)
Min Temperature 30 °F 23 °F 5 °F (1967)
Degree Days  
Heating Degree Days 22    
Moisture  
Dew Point 32 °F    
Average Humidity 70    
Maximum Humidity 100    
Minimum Humidity 38    
Precipitation  
Precipitation 0.02 in - - ()
Sea Level Pressure  
Sea Level Pressure 30.12 in    
Wind  
Wind Speed 4 mph (SSE)    
Max Wind Speed 10 mph    
Max Gust Speed -    
Visibility 10 miles    
Events Rain    
Averages and records for this station are not official NWS values.
T = Trace of Precipitation, MM = Missing Value Source: NWS Daily Summary

Daily Weather History Graph

Daily Weather History Graph

Search for Another Location

Airport or City:

Trip Planner

Search our weather history database for the weather conditions in past years. The results will help you decide how hot, cold, wet, or windy it might be!

Date:

Astronomy

Jan. 20, 2012 Rise Set
Actual Time 7:24 AM EST 5:29 PM EST
Civil Twilight 6:57 AM EST 5:56 PM EST
Nautical Twilight 6:25 AM EST 6:28 PM EST
Astronomical Twilight 5:54 AM EST 6:59 PM EST
Moon 4:58 AM EST (1/20) 3:00 PM EST (1/20)
Length of Visible Light 10h 59m
Length of Day
10h 04m
Waning Crescent, 8% of the Moon is Illuminated
Jan 20
Waning Crescent
Jan 23
New
Jan 30
First Quarter
Feb 7
Full
Feb 14
Last Quarter

Hourly Weather History & Observations

Time (EST) Temp. Windchill Dew Point Humidity Pressure Visibility Wind Dir Wind Speed Gust Speed Precip Events Conditions
12:15 AM 39.2 °F 33.6 °F 30.2 °F 70% 30.07 in 10.0 mi SW 8.1 mph - N/A   Clear
12:35 AM 39.2 °F 35.9 °F 30.2 °F 70% 30.07 in 10.0 mi WSW 4.6 mph - N/A   Scattered Clouds
12:55 AM 39.2 °F 35.0 °F 30.2 °F 70% 30.07 in 10.0 mi WSW 5.8 mph - N/A   Mostly Cloudy
1:15 AM 39.2 °F 35.9 °F 30.2 °F 70% 30.07 in 10.0 mi WSW 4.6 mph - N/A   Scattered Clouds
1:35 AM 37.4 °F 33.8 °F 30.2 °F 75% 30.07 in 10.0 mi SW 4.6 mph - N/A   Clear
1:55 AM 35.6 °F 32.8 °F 30.2 °F 81% 30.08 in 10.0 mi SW 3.5 mph - N/A   Clear
2:15 AM 35.6 °F 31.7 °F 30.2 °F 81% 30.08 in 10.0 mi WSW 4.6 mph - N/A   Clear
2:35 AM 37.4 °F 32.8 °F 30.2 °F 75% 30.07 in 10.0 mi SW 5.8 mph - N/A   Clear
2:55 AM 35.6 °F 32.8 °F 30.2 °F 81% 30.07 in 10.0 mi SW 3.5 mph - N/A   Clear
3:15 AM 35.6 °F 31.7 °F 30.2 °F 81% 30.07 in 10.0 mi SW 4.6 mph - N/A   Clear
3:35 AM 33.8 °F 29.6 °F 30.2 °F 87% 30.06 in 10.0 mi SW 4.6 mph - N/A   Clear
3:55 AM 33.8 °F 30.8 °F 30.2 °F 87% 30.07 in 10.0 mi SW 3.5 mph - N/A   Clear
4:15 AM 33.8 °F - 30.2 °F 87% 30.07 in 10.0 mi Calm Calm - N/A   Clear
4:35 AM 32.0 °F - 30.2 °F 93% 30.07 in 10.0 mi Calm Calm - N/A   Clear
4:55 AM 32.0 °F - 30.2 °F 93% 30.07 in 10.0 mi Calm Calm - N/A   Clear
5:15 AM 32.0 °F - 28.4 °F 87% 30.07 in 10.0 mi Calm Calm - N/A   Clear
5:35 AM 32.0 °F - 28.4 °F 87% 30.08 in 10.0 mi Calm Calm - N/A   Clear
5:55 AM 30.2 °F - 30.2 °F 100% 30.09 in 10.0 mi Calm Calm - N/A   Clear
6:15 AM 30.2 °F - 30.2 °F 100% 30.10 in 10.0 mi Calm Calm - N/A   Clear
6:35 AM 30.2 °F - 30.2 °F 100% 30.11 in 10.0 mi Calm Calm - N/A   Clear
6:55 AM 30.2 °F - 30.2 °F 100% 30.12 in 10.0 mi Calm Calm - N/A   Clear
7:15 AM 30.2 °F - 30.2 °F 100% 30.12 in 7.0 mi Calm Calm - N/A   Clear
7:35 AM 30.2 °F - 30.2 °F 100% 30.14 in 7.0 mi Calm Calm - N/A   Clear
7:55 AM 30.2 °F - 28.4 °F 93% 30.14 in 7.0 mi Calm Calm - N/A   Scattered Clouds
8:15 AM 32.0 °F - 30.2 °F 93% 30.14 in 7.0 mi Calm Calm - N/A   Mostly Cloudy
8:35 AM 32.0 °F 28.7 °F 32.0 °F 100% 30.15 in 7.0 mi NNE 3.5 mph - N/A   Mostly Cloudy
8:55 AM 33.8 °F - 32.0 °F 93% 30.17 in 10.0 mi Calm Calm - N/A   Overcast
9:35 AM 41.0 °F - 32.0 °F 70% 30.17 in 10.0 mi Calm Calm - N/A   Scattered Clouds
9:55 AM 42.8 °F - 32.0 °F 66% 30.17 in 10.0 mi Calm Calm - N/A   Clear
10:15 AM 42.8 °F - 32.0 °F 66% 30.17 in 10.0 mi Calm Calm - N/A   Clear
10:35 AM 46.4 °F - 32.0 °F 57% 30.18 in 10.0 mi Calm Calm - N/A   Clear
10:55 AM 50.0 °F - 32.0 °F 50% 30.17 in 10.0 mi Calm Calm - N/A   Clear
11:15 AM 51.8 °F - 30.2 °F 44% 30.18 in 10.0 mi North 4.6 mph - N/A   Clear
11:35 AM 51.8 °F - 30.2 °F 44% 30.17 in 10.0 mi NNW 4.6 mph - N/A   Clear
11:55 AM 53.6 °F - 30.2 °F 41% 30.16 in 10.0 mi NNW 4.6 mph - N/A   Clear
12:15 PM 53.6 °F - 30.2 °F 41% 30.15 in 10.0 mi Calm Calm - N/A   Clear
12:35 PM 53.6 °F - 30.2 °F 41% 30.15 in 10.0 mi ENE 4.6 mph - N/A   Scattered Clouds
12:55 PM 53.6 °F - 30.2 °F 41% 30.14 in 10.0 mi NE 4.6 mph - N/A   Mostly Cloudy
1:15 PM 55.4 °F - 30.2 °F 38% 30.14 in 10.0 mi Calm Calm - N/A   Mostly Cloudy
1:35 PM 55.4 °F - 30.2 °F 38% 30.12 in 10.0 mi East 5.8 mph - N/A   Scattered Clouds
1:55 PM 55.4 °F - 32.0 °F 41% 30.12 in 10.0 mi SE 3.5 mph - N/A   Clear
2:15 PM 55.4 °F - 32.0 °F 41% 30.13 in 10.0 mi South 4.6 mph - N/A   Scattered Clouds
2:35 PM 55.4 °F - 32.0 °F 41% 30.13 in 10.0 mi Calm Calm - N/A   Overcast
2:55 PM 55.4 °F - 32.0 °F 41% 30.12 in 10.0 mi ESE 3.5 mph - N/A   Overcast
3:15 PM 55.4 °F - 32.0 °F 41% 30.12 in 10.0 mi ESE 6.9 mph - N/A   Overcast
3:35 PM 53.6 °F - 32.0 °F 44% 30.13 in 10.0 mi SSE 4.6 mph - N/A   Overcast
3:55 PM 53.6 °F - 32.0 °F 44% 30.13 in 10.0 mi SE 3.5 mph - N/A   Overcast
4:15 PM 53.6 °F - 32.0 °F 44% 30.14 in 10.0 mi SSE 5.8 mph - N/A Rain Light Rain
4:35 PM 51.8 °F - 33.8 °F 50% 30.14 in 10.0 mi Calm Calm - N/A Rain Rain
4:55 PM 51.8 °F - 33.8 °F 50% 30.14 in 10.0 mi ESE 3.5 mph - N/A   Overcast
5:15 PM 51.8 °F - 35.6 °F 54% 30.15 in 10.0 mi East 3.5 mph - N/A Rain Light Rain
5:35 PM 46.4 °F 41.5 °F 35.6 °F 66% 30.16 in 10.0 mi ENE 10.4 mph - N/A Rain Light Rain
5:55 PM 44.6 °F 40.7 °F 37.4 °F 76% 30.18 in 10.0 mi ENE 6.9 mph - N/A Rain Rain
6:15 PM 44.6 °F 41.4 °F 37.4 °F 76% 30.18 in 10.0 mi East 5.8 mph - N/A Rain Light Rain
6:35 PM 42.8 °F 39.3 °F 41.0 °F 93% 30.16 in 10.0 mi NE 5.8 mph - 0.01 in Rain Light Rain
6:55 PM 42.8 °F 38.0 °F 41.0 °F 93% 30.15 in 10.0 mi ENE 8.1 mph - 0.02 in   Overcast
7:15 PM 42.8 °F 39.3 °F 41.0 °F 93% 30.15 in 10.0 mi East 5.8 mph - N/A   Overcast
7:35 PM 42.8 °F 39.3 °F 37.4 °F 81% 30.14 in 10.0 mi ESE 5.8 mph - N/A   Overcast
7:55 PM 44.6 °F - 37.4 °F 76% 30.16 in 10.0 mi Calm Calm - N/A Rain Light Rain
8:15 PM 42.8 °F 40.1 °F 41.0 °F 93% 30.16 in 5.0 mi SSE 4.6 mph - 0.01 in Rain Rain
8:35 PM 44.6 °F 40.7 °F 42.8 °F 93% 30.15 in 5.0 mi ESE 6.9 mph - 0.03 in Rain Rain
8:55 PM 44.6 °F - 44.6 °F 100% 30.16 in 4.0 mi Calm Calm - 0.06 in Rain Rain
9:15 PM 44.6 °F 43.1 °F 44.6 °F 100% 30.15 in 5.0 mi SE 3.5 mph - 0.02 in Rain Rain
9:35 PM 44.6 °F 43.1 °F 44.6 °F 100% 30.16 in 5.0 mi South 3.5 mph - 0.04 in Rain Rain
9:55 PM 44.6 °F 42.2 °F 44.6 °F 100% 30.15 in 4.0 mi SE 4.6 mph - 0.06 in Rain Light Rain
10:15 PM 44.6 °F 42.2 °F 44.6 °F 100% 30.14 in 5.0 mi SSE 4.6 mph - N/A   Drizzle
10:35 PM 44.6 °F 43.1 °F 44.6 °F 100% 30.14 in 5.0 mi South 3.5 mph - 0.01 in   Drizzle
10:55 PM 44.6 °F - 44.6 °F 100% 30.14 in 5.0 mi Calm Calm - 0.01 in   Light Drizzle
11:15 PM 44.6 °F - 44.6 °F 100% 30.15 in 4.0 mi Calm Calm - N/A Rain Light Rain
11:35 PM 44.6 °F - 44.6 °F 100% 30.14 in 4.0 mi Calm Calm - 0.01 in   Drizzle